Location: Newark
(54.6833°N, 25.2833°E)
Time: 13:07:36
(UTC+00:00)

Altair - Pass Details

Date: 14 November 2019
Orbit: 1502 x 1682 km, 47.2° (Epoch: 16 December)

Event Time Altitude Azimuth Distance (km) Brightness Sun altitude
Rises 08:13:56 0° 280° (W) 4,669 9.7 13.5°
Reaches altitude 10° 08:17:15 10° 272° (W) 3,703 9.3 13.7°
Maximum altitude 08:25:21 35° 212° (SSW) 2,330 9.1 14.2°
Drops below altitude 10° 08:33:43 10° 152° (SSE) 3,812 12.3 14.7°
Sets 08:37:12 0° 143° (SE) 4,822 11.7 14.9°
